Theta_e
339 340 339 338 338 336 333 331 331 332 332 334 333 330 331 331 330 331 332 333 333 333 332 331 331 331 330 331 331 331 331 331 330 331 330 329 327 325 324 322 324 327 327 327 328 327 325 325 325 326 325 322 321 323 323 322 322 321 321 321 320 319 317 317 317 316 315 313 310 308 307 308 312 316 318 321 323 324 324 325 325 325 325 324 324
338 339 338 337 336 334 333 331 330 330 332 335 333 331 331 331 330 331 332 333 333 333 332 332 331 331 330 330 331 331 331 332 331 331 332 331 329 327 325 323 323 326 327 327 327 327 326 326 326 327 326 323 322 324 324 323 322 323 323 323 323 323 322 322 321 320 318 317 315 313 314 316 319 321 323 325 325 325 326 326 326 326 326 326 326
337 337 337 336 335 333 332 331 329 329 332 333 332 332 333 332 332 332 332 333 334 334 333 334 332 330 330 328 329 331 331 332 331 331 332 333 332 329 327 325 322 324 326 327 327 327 327 327 326 328 327 324 324 325 325 324 324 324 324 324 324 324 325 324 323 323 322 321 321 321 322 323 324 324 325 325 326 326 326 326 327 327 327 327 327
337 336 336 336 335 335 333 331 330 329 331 332 332 332 333 333 333 333 334 335 335 334 334 335 333 330 330 327 327 331 331 331 331 331 332 333 333 332 330 327 324 323 324 325 327 327 327 328 326 328 328 324 325 326 326 325 326 326 325 324 324 325 325 325 325 324 324 324 324 324 325 325 325 325 326 326 327 327 327 327 327 327 327 328 328
336 336 335 336 336 335 334 332 330 328 330 332 332 333 333 334 334 335 335 336 336 335 334 334 334 331 329 329 329 331 331 331 331 331 332 333 333 334 332 330 327 325 323 323 325 326 328 329 327 328 328 325 326 327 327 326 327 327 325 324 324 325 325 326 325 325 325 325 325 325 325 325 325 325 326 327 327 327 327 327 327 327 328 328 329
336 336 335 335 336 336 335 334 332 330 331 332 333 334 335 335 336 336 336 336 337 336 335 334 334 333 330 330 331 331 331 331 332 332 332 333 333 334 333 333 331 328 326 324 324 325 326 327 328 329 329 327 327 328 328 327 327 327 327 325 324 325 326 326 326 326 325 325 325 326 326 326 326 326 326 327 327 327 328 328 328 329 329 330 330
335 336 336 335 336 337 336 336 335 335 335 335 335 335 336 337 336 337 336 336 336 335 335 335 334 333 331 331 332 332 332 332 332 332 333 333 333 334 334 333 334 332 330 328 325 325 324 325 327 329 329 329 329 329 329 329 328 328 329 328 327 325 326 327 327 327 326 326 326 326 326 327 327 327 327 327 327 328 328 329 330 330 330 331 331
336 336 335 335 336 336 337 337 336 336 336 336 337 337 337 337 337 337 337 336 336 337 336 335 335 334 332 332 333 333 334 334 332 332 332 333 333 334 334 333 334 334 333 332 330 328 326 325 325 326 327 328 328 329 330 331 330 329 330 330 329 327 327 327 328 328 327 327 327 327 327 327 327 327 327 328 328 329 329 330 330 331 331 331 331
337 336 334 335 335 335 337 337 336 337 337 338 338 338 336 337 339 338 338 338 337 339 337 334 335 335 334 334 334 335 335 335 335 334 333 332 333 334 335 334 334 335 334 334 333 332 330 328 327 326 326 327 327 328 330 331 332 331 331 331 331 330 329 329 329 329 329 328 328 328 328 328 328 328 328 329 329 330 330 330 330 330 331 331 331
339 337 334 335 336 335 336 337 337 337 338 338 340 339 338 337 339 338 338 340 340 340 339 336 337 335 334 334 334 336 337 336 337 337 336 334 334 335 335 336 335 335 335 334 335 335 333 332 331 329 328 327 327 327 328 330 332 332 332 332 332 332 331 330 330 330 329 329 329 329 329 329 329 329 330 330 330 330 330 330 330 331 331 331 331
337 337 336 338 339 337 336 337 337 337 336 338 339 340 339 338 339 338 337 339 340 339 338 337 339 338 337 336 335 336 337 337 337 337 338 336 336 335 335 336 336 336 336 335 335 336 335 335 333 332 331 331 330 329 328 329 329 330 330 331 332 332 331 330 331 330 330 330 330 330 330 330 330 330 330 331 331 331 331 331 331 331 331 332 332
336 336 338 339 341 338 337 338 336 336 336 337 339 339 339 338 339 339 336 336 336 336 336 336 337 339 339 337 336 336 336 336 337 337 338 337 337 336 335 336 336 336 336 336 337 337 337 336 335 334 334 334 333 333 331 330 330 329 329 329 330 331 330 330 330 331 331 331 331 331 330 330 331 331 331 331 331 331 331 332 332 332 332 333 333
337 337 336 338 340 338 337 338 337 336 336 337 338 338 339 338 338 339 337 336 336 336 336 336 338 339 338 337 336 336 336 337 337 338 338 338 336 336 336 336 337 336 336 337 337 337 337 337 337 336 336 335 335 334 334 334 333 332 332 331 331 331 330 330 331 331 331 332 332 332 332 332 332 332 333 332 332 333 332 333 333 333 333 334 334
337 337 335 335 337 336 336 337 337 337 338 337 338 339 339 338 338 339 338 336 336 336 336 337 338 337 336 337 338 337 337 336 336 338 339 338 337 336 336 336 336 336 336 337 337 337 337 337 338 338 337 337 337 336 336 335 334 335 334 334 334 333 333 333 333 332 333 333 333 333 333 334 334 334 334 334 334 334 334 335 335 335 335 335 335
337 337 337 335 335 334 334 334 335 336 337 338 338 339 339 338 338 337 337 336 336 336 337 339 338 335 336 339 341 341 341 339 338 339 338 337 337 337 336 336 336 335 335 336 336 337 337 337 338 338 338 338 338 338 337 336 335 335 335 335 335 335 335 335 335 335 334 334 334 334 334 335 334 334 334 334 335 335 336 336 336 336 336 336 335
337 337 337 337 335 334 333 334 335 335 337 338 338 339 339 338 337 335 335 336 336 336 337 339 338 338 340 341 340 341 343 342 341 340 336 334 335 335 336 336 335 335 335 335 336 337 337 337 338 338 339 339 338 338 338 338 338 336 336 335 335 336 335 335 335 335 335 335 335 335 335 335 335 335 335 335 336 336 336 336 335 336 336 336 335
337 337 337 337 335 334 335 335 335 334 335 337 337 337 337 338 337 334 335 336 336 336 337 339 338 338 340 341 340 342 343 341 340 341 337 333 333 334 334 335 334 336 336 336 336 337 337 337 338 338 339 339 339 340 339 339 339 338 338 337 336 336 336 336 336 335 336 335 335 335 335 335 335 335 335 336 336 337 336 335 335 335 336 335 333
336 336 336 336 335 334 334 335 335 334 334 335 335 335 335 336 335 333 334 335 336 337 338 338 338 338 338 339 340 341 342 339 339 343 340 336 334 333 332 334 335 336 337 338 337 338 338 338 339 339 339 340 340 341 340 339 340 340 338 338 338 337 336 336 336 336 336 336 336 335 336 336 336 336 337 337 337 337 335 335 336 336 336 333 331
336 336 336 337 336 334 333 334 336 335 335 335 335 335 335 335 333 333 335 335 336 338 338 337 338 339 339 339 339 338 339 339 340 342 342 340 337 334 333 334 337 337 337 337 337 338 338 339 340 340 339 340 340 340 340 340 340 340 340 339 339 339 338 336 336 336 336 336 336 336 336 336 336 337 338 338 337 335 335 335 336 335 334 332 331
336 337 337 337 337 336 334 334 335 335 335 335 336 336 336 336 334 336 337 336 337 338 339 339 339 339 337 338 338 337 337 338 339 340 340 339 338 338 337 336 339 340 338 336 336 337 336 336 338 338 338 340 340 339 340 340 339 339 340 339 339 340 340 339 338 337 336 336 336 336 336 336 338 338 338 337 336 334 335 335 335 334 333 331 331
335 337 338 337 338 337 336 334 335 336 335 335 336 337 337 336 336 337 337 337 337 337 338 339 339 337 336 337 338 337 338 338 338 338 337 338 338 339 339 338 340 340 337 336 336 336 335 335 336 336 338 340 340 339 339 339 338 338 339 339 339 340 340 340 339 337 336 336 336 336 336 338 339 338 336 335 335 335 334 333 333 332 331 330 329
338 338 338 338 338 338 338 336 336 337 337 336 337 338 338 337 337 338 337 337 338 337 337 338 338 337 337 339 339 339 340 339 340 338 336 337 337 338 338 339 341 339 336 336 335 333 333 333 334 334 336 337 338 338 338 338 338 337 338 339 339 339 339 339 338 337 336 336 336 337 338 339 337 334 334 334 334 334 332 330 330 330 330 329 327
340 340 339 338 338 338 339 339 338 338 339 338 337 338 338 338 339 339 338 338 339 339 338 338 338 336 336 338 339 340 339 339 340 340 338 338 338 338 337 338 341 340 337 336 334 332 331 331 332 333 334 336 337 337 336 336 336 336 337 338 340 340 340 340 337 336 336 336 337 338 339 338 333 331 333 334 332 331 330 329 327 327 327 325 324
340 340 340 339 338 338 338 339 338 338 338 338 338 337 338 339 339 339 339 340 340 340 339 338 337 336 337 337 338 338 339 338 338 338 338 338 339 340 338 338 341 339 336 336 335 333 333 333 333 333 335 337 337 336 335 334 333 334 337 338 340 341 341 340 337 336 336 337 338 339 338 334 331 332 332 332 330 326 325 325 324 322 323 322 321
340 341 340 339 339 338 338 339 338 338 339 339 338 338 338 339 340 339 339 339 339 339 339 338 337 338 338 337 337 337 338 338 336 336 337 337 338 339 338 338 339 337 335 336 336 334 334 335 335 335 337 337 336 334 334 333 332 335 338 339 340 340 340 338 336 336 336 338 339 338 335 332 332 333 331 331 328 321 317 319 321 322 322 321 319
341 341 341 340 340 339 338 339 339 339 339 339 339 339 339 339 339 339 339 338 338 338 339 338 338 338 338 337 337 337 338 337 337 337 337 337 339 340 339 338 337 336 335 335 335 335 336 335 334 336 338 336 333 333 333 333 333 334 335 338 340 339 338 337 335 336 337 338 338 335 333 332 332 333 332 329 322 315 312 313 317 319 318 318 316
341 341 341 341 340 339 339 339 340 340 340 340 340 340 339 339 339 339 338 338 338 338 338 338 339 339 339 338 338 338 338 337 337 337 337 337 338 338 338 340 339 338 337 336 335 335 336 336 335 336 337 334 333 334 334 334 333 331 332 336 340 339 338 337 335 336 337 338 336 334 334 333 333 333 330 323 315 312 311 311 312 312 312 312 312
339 338 338 340 340 340 340 340 341 341 341 341 341 340 340 339 339 339 339 339 338 339 339 339 339 339 339 339 339 339 339 338 337 337 337 337 337 336 337 338 339 339 339 339 338 336 335 336 336 336 336 334 333 334 334 334 331 331 332 334 338 339 337 336 335 335 337 336 335 334 334 333 332 331 324 316 312 312 311 310 309 308 308 309 309
338 337 337 339 340 341 341 341 341 341 341 341 341 341 341 341 340 340 339 339 338 339 339 339 339 339 339 338 338 338 337 338 338 337 337 337 337 337 337 336 336 338 339 339 339 338 336 336 335 336 335 334 334 334 334 333 332 333 334 332 334 337 335 335 335 336 337 335 333 334 335 332 330 326 317 312 312 311 311 309 308 307 306 306 305
337 337 337 338 339 340 340 340 340 339 339 340 340 341 341 341 341 340 340 339 339 339 339 339 339 338 338 338 338 337 336 337 338 337 337 338 337 337 337 336 336 336 337 337 337 337 336 336 334 335 334 333 334 335 334 335 334 334 334 332 332 334 335 335 336 336 336 334 333 334 333 330 325 320 314 311 311 311 310 308 306 304 303 303 302
338 337 337 338 338 339 339 339 338 339 339 339 340 340 340 340 340 340 339 339 339 339 338 338 338 338 337 337 338 337 337 337 337 337 337 337 337 337 336 337 336 335 334 335 336 337 336 336 335 335 334 332 333 334 334 336 334 332 333 333 332 333 335 335 336 336 335 333 333 331 329 325 321 315 312 311 312 311 309 307 305 303 301 300 299
338 337 337 338 338 338 338 338 337 337 338 338 339 339 339 338 338 338 338 338 337 337 337 336 337 336 336 337 336 336 337 337 337 337 337 337 337 337 337 337 337 336 335 335 336 336 336 336 336 335 334 333 333 332 334 336 334 331 334 336 335 334 335 336 336 335 334 333 332 330 325 322 317 313 312 312 312 311 309 306 303 301 300 299 298
337 337 337 337 337 337 337 337 337 336 337 338 338 338 338 337 337 337 337 337 336 336 335 335 335 335 335 335 335 335 335 336 336 336 336 337 336 336 336 336 336 335 335 334 334 335 335 335 336 336 334 334 333 333 334 335 333 333 336 338 336 334 335 337 336 334 334 334 332 328 324 320 316 312 312 312 312 312 309 305 302 300 299 298 298
337 336 337 337 336 336 336 336 336 336 336 336 336 336 337 336 336 336 336 336 335 335 334 334 334 334 334 334 334 334 334 334 335 335 335 335 335 335 336 335 334 333 333 333 334 335 336 335 336 336 335 334 334 334 334 335 334 335 337 338 336 335 336 337 336 334 334 334 331 327 323 318 314 312 311 312 313 311 307 304 301 299 299 298 298
337 337 336 335 334 334 335 335 335 335 335 335 335 335 335 335 335 335 335 335 334 334 333 333 333 332 332 332 332 333 333 333 334 334 334 334 334 334 335 334 334 333 332 333 335 335 335 335 335 336 334 333 334 334 333 333 334 335 338 338 336 336 336 336 335 334 334 333 330 327 322 317 313 311 311 312 312 310 307 304 301 299 298 297 297
337 337 335 334 333 334 334 334 334 334 334 333 334 334 334 334 334 333 333 333 333 332 331 331 330 329 328 327 328 329 329 330 331 332 332 333 333 334 334 334 334 334 333 334 335 335 334 335 335 335 334 332 332 334 333 332 333 335 337 338 337 336 336 336 335 334 334 332 330 326 322 317 312 311 311 311 311 309 306 303 300 298 297 296 296
336 335 335 334 333 333 333 333 333 333 333 333 333 333 333 333 333 332 332 331 331 330 328 327 326 325 324 324 325 325 325 326 326 328 328 329 330 331 332 332 332 333 333 333 334 333 333 334 334 334 334 333 331 332 333 332 332 335 337 337 336 335 335 336 335 334 334 332 329 326 322 316 312 311 310 309 309 308 305 302 299 298 296 296 296
332 332 333 333 333 333 332 332 333 332 332 332 332 332 332 332 332 331 330 329 328 326 325 325 323 323 322 322 322 322 323 323 323 323 325 326 328 329 331 331 332 332 332 333 333 333 332 332 332 333 334 333 331 331 332 332 332 335 336 335 335 336 335 336 334 332 332 331 329 326 321 315 312 310 308 308 307 306 303 300 298 297 296 296 296
330 330 332 333 332 332 332 332 332 331 331 331 331 331 331 330 330 329 328 326 325 323 323 322 322 321 321 321 322 321 321 321 322 323 325 326 326 327 328 329 330 331 332 332 332 333 332 332 332 333 333 333 332 330 331 332 332 333 334 332 333 335 336 334 332 330 329 328 327 325 320 314 311 309 307 305 305 304 302 299 298 297 296 296 296
330 330 331 331 331 331 332 331 330 330 329 329 330 330 329 329 328 327 326 324 323 322 321 321 321 321 321 321 321 321 321 322 322 323 324 323 322 322 321 321 322 325 327 329 331 331 332 332 332 332 332 332 332 330 330 331 331 332 332 330 330 333 334 333 331 330 329 327 326 324 319 314 313 310 305 302 302 302 301 299 298 297 296 296 296
330 329 329 330 329 329 330 330 329 328 328 328 328 328 327 327 326 325 323 322 322 321 321 321 320 320 320 319 319 319 320 321 321 321 320 319 318 317 317 317 317 319 321 323 327 329 330 331 331 331 332 332 332 330 329 330 329 329 330 330 330 332 332 330 328 328 329 327 324 321 318 315 314 310 303 299 300 300 299 298 298 298 297 296 296
330 329 329 329 329 329 329 329 328 327 327 327 327 326 326 325 324 323 322 321 321 321 320 320 319 319 319 318 318 319 319 319 319 318 318 318 318 317 317 317 317 317 317 319 321 323 325 327 328 329 330 330 331 330 329 329 328 328 329 330 330 330 329 327 326 325 326 326 323 320 317 315 314 309 301 299 300 299 298 299 299 298 298 297 296
330 330 330 330 330 329 329 328 327 326 327 327 327 325 325 324 323 322 321 321 321 321 320 320 319 319 319 318 318 317 317 317 317 317 317 318 318 318 317 318 318 318 318 318 319 320 321 323 324 325 327 328 329 329 329 329 327 326 328 330 330 329 327 326 326 325 324 324 323 319 315 315 315 309 300 299 300 299 298 299 299 299 299 298 297
329 330 330 330 330 329 328 327 326 326 326 326 326 325 324 323 322 321 321 321 321 320 320 319 319 319 318 317 317 317 316 316 316 317 316 317 317 318 318 318 318 318 318 318 318 319 319 320 321 322 324 325 326 326 327 329 328 327 328 328 328 329 327 326 327 327 325 323 322 318 313 313 313 308 300 299 300 299 299 299 300 299 299 299 298
329 330 330 329 329 328 327 327 326 326 326 326 325 325 324 323 322 321 320 319 318 319 319 318 318 318 317 317 317 317 317 316 316 316 316 316 317 318 318 319 319 319 319 319 318 318 318 319 320 321 321 322 323 323 324 326 327 328 328 327 327 328 327 327 328 328 325 324 322 316 310 310 309 304 299 300 300 298 299 300 300 300 299 299 298
329 330 330 329 328 328 328 327 326 325 325 325 324 323 323 323 322 321 320 318 316 316 317 317 317 317 317 317 317 317 317 317 316 316 316 316 316 317 318 319 320 320 320 319 319 319 319 319 319 320 321 321 321 322 322 323 325 327 328 328 327 328 327 327 328 328 325 323 321 316 310 308 307 302 300 301 300 298 299 300 300 300 299 299 298
330 330 330 329 329 329 329 328 326 325 324 324 323 322 322 321 320 320 319 316 313 314 316 317 317 317 317 317 317 317 317 317 316 316 315 315 315 316 316 317 318 319 318 319 319 319 319 320 320 320 320 320 321 321 322 323 324 325 326 325 325 326 327 328 328 328 326 323 320 317 312 307 306 304 302 303 302 299 299 301 301 300 300 300 299
331 331 330 329 329 329 329 328 326 324 324 323 322 322 321 319 316 316 315 313 313 315 317 317 317 317 317 317 317 317 317 317 316 315 315 315 315 315 315 316 317 317 317 316 317 317 318 319 319 320 319 319 319 319 320 321 321 321 322 322 322 323 325 328 328 327 327 323 318 316 314 309 306 304 304 305 304 301 300 301 301 301 301 300 300
332 331 330 329 329 329 328 328 326 324 323 323 322 322 320 317 315 314 313 313 315 316 316 316 317 317 317 317 317 316 316 316 316 315 315 314 314 314 314 314 315 316 316 316 316 317 318 319 319 319 319 319 319 319 318 318 318 319 319 319 320 322 324 327 327 326 326 322 316 314 315 311 307 306 306 307 305 302 302 302 302 302 302 301 300
331 331 330 329 328 328 328 327 326 325 323 322 322 321 319 317 316 314 313 315 316 316 316 317 317 316 316 316 316 316 316 316 316 315 315 314 313 313 313 314 314 314 314 315 316 317 317 318 319 319 319 319 319 319 319 320 320 320 320 319 319 321 323 325 325 325 325 322 315 314 314 312 309 307 308 307 306 303 302 302 303 304 303 301 300
331 330 329 328 328 328 328 328 326 325 323 322 322 320 318 318 318 316 315 316 317 317 317 318 317 316 316 315 315 314 314 315 316 315 314 314 313 313 313 313 314 314 314 314 315 316 316 316 316 316 316 316 316 317 318 318 319 320 320 321 321 321 322 322 323 325 325 322 318 315 314 312 310 309 309 308 307 305 303 303 305 305 304 302 301
Wind_Speed
16 15 15 15 13 14 16 15 15 15 14 14 13 12 12 8 8 6 5 4 4 5 5 5 4 5 8 7 6 5 3 2 2 6 6 4 6 4 2 5 11 14 12 11 11 11 10 9 8 8 7 5 6 7 5 5 5 5 4 3 2 2 1 1 1 1 2 2 2 2 2 2 3 4 6 6 4 5 7 8 9 9 10 10 11
14 14 14 14 12 13 14 14 16 17 14 13 13 11 9 7 6 6 6 5 5 5 4 5 5 5 8 8 7 7 5 4 3 6 6 5 4 4 3 3 10 13 12 11 12 12 11 10 9 9 9 6 8 8 7 6 5 4 3 2 2 2 2 2 2 2 2 2 2 2 2 2 3 4 5 6 5 6 8 8 8 8 9 9 10
11 12 12 12 12 13 12 13 14 16 15 14 14 11 9 8 7 6 6 6 6 7 5 5 6 7 7 8 7 7 7 6 5 6 6 2 0 2 3 3 6 11 13 12 12 12 12 11 10 10 10 7 9 10 9 8 6 3 1 0 1 1 1 2 2 2 2 2 2 2 3 2 2 4 5 6 7 7 7 7 8 8 9 10 9
9 9 10 11 11 13 11 11 12 13 13 12 12 11 9 9 8 6 5 5 6 7 7 6 8 9 9 8 6 7 8 7 6 7 7 4 2 3 3 3 4 7 10 13 14 13 13 12 11 11 11 9 10 11 10 10 9 8 6 4 3 2 1 2 1 1 1 1 2 2 2 2 2 3 5 6 6 7 7 8 9 9 10 11 11
9 8 10 11 11 12 11 10 11 12 12 11 11 10 8 8 6 6 5 4 4 5 6 6 7 7 9 10 8 8 9 9 7 7 7 6 5 5 4 3 4 5 7 11 14 14 14 14 13 12 12 10 10 12 12 11 11 11 9 6 4 4 3 2 1 1 1 0 1 1 1 2 2 3 4 5 5 7 8 9 10 11 12 12 12
7 8 9 10 10 12 11 10 11 12 13 12 11 9 7 7 5 5 5 4 5 4 4 5 5 4 6 8 9 8 8 9 9 9 8 7 8 8 6 5 5 5 6 9 11 14 14 15 15 13 14 13 12 12 12 13 12 12 11 8 5 5 4 3 2 2 1 1 1 1 2 2 3 4 4 5 5 7 8 10 11 12 12 12 12
7 9 9 10 11 11 11 12 11 9 10 9 9 8 7 6 5 4 5 5 4 4 3 3 4 3 5 4 6 7 6 7 8 9 9 9 10 10 9 8 8 7 6 7 8 10 12 14 15 15 15 15 14 14 13 13 13 13 13 11 8 6 6 5 4 3 3 3 3 3 3 3 4 5 6 6 7 7 8 9 11 12 13 13 12
7 8 8 8 9 10 9 11 9 5 5 6 5 6 6 4 3 2 3 3 2 2 1 3 2 0 3 4 5 6 6 7 7 7 9 9 10 11 11 11 11 10 8 8 7 7 9 10 12 13 14 15 16 16 15 14 14 14 14 13 12 9 8 7 6 5 5 5 5 4 5 5 5 6 7 8 8 9 9 9 11 12 13 13 11
6 7 8 8 6 6 7 7 5 4 4 5 2 3 5 4 2 1 1 3 4 4 3 2 1 2 2 4 5 5 5 6 6 6 7 8 9 11 11 11 12 11 11 12 11 8 8 8 9 10 11 13 14 15 16 16 15 15 14 14 14 12 11 9 7 7 7 7 7 6 6 6 7 7 8 8 10 10 10 10 11 12 13 13 11
7 8 7 7 5 3 5 5 4 6 6 6 2 2 3 3 3 2 1 2 4 4 2 1 3 3 2 3 3 4 5 4 3 4 6 8 9 10 11 12 12 12 13 13 13 12 10 8 8 9 10 11 11 12 14 15 16 17 17 16 15 15 14 12 10 9 9 9 8 8 7 7 7 8 8 8 9 10 11 11 11 12 12 13 12
10 9 7 9 6 2 3 4 4 5 6 7 3 1 3 2 2 2 3 2 2 3 1 1 2 3 3 4 4 5 5 4 4 6 7 6 7 8 10 11 12 12 13 13 13 12 12 11 10 10 10 11 11 12 12 13 14 16 17 16 16 16 16 15 13 12 11 10 9 8 8 8 8 8 8 8 9 10 12 12 12 12 12 13 12
12 12 8 8 7 2 4 5 4 4 5 6 3 0 3 3 2 2 3 3 3 2 1 2 3 3 5 6 6 6 6 6 6 8 8 7 7 7 8 10 12 13 13 13 14 13 14 14 13 12 12 11 12 12 12 12 13 14 14 15 15 15 15 14 13 12 11 10 10 9 9 8 8 8 8 9 10 11 12 13 12 12 12 12 12
12 13 12 10 9 6 6 6 6 4 3 4 3 3 3 3 3 2 3 4 5 3 2 3 4 4 5 6 7 8 8 9 10 10 9 9 9 8 7 9 9 10 12 13 13 14 14 15 15 14 13 12 12 13 12 12 12 13 13 13 14 13 13 13 12 12 11 10 10 10 9 9 9 9 9 10 11 12 13 13 13 12 11 12 12
12 13 14 14 13 10 7 6 6 5 5 5 4 4 4 4 5 4 5 5 4 2 2 2 2 3 3 5 7 8 8 9 10 8 8 9 10 9 9 9 7 8 12 12 12 13 14 15 17 15 14 14 15 16 15 15 15 14 14 13 13 13 13 13 12 12 11 11 11 10 10 10 10 10 11 12 13 14 14 13 13 12 11 11 11
12 13 14 15 15 13 10 8 7 7 8 8 7 6 7 7 6 6 6 4 3 3 3 3 2 0 1 2 3 4 4 5 5 7 8 9 9 10 11 11 9 9 11 12 12 13 13 15 18 17 16 18 18 18 18 18 17 15 15 14 14 14 14 14 13 13 12 12 11 11 11 11 11 12 12 14 14 14 13 12 12 11 11 11 10
13 14 16 17 16 14 13 11 10 10 10 11 9 8 9 9 8 7 6 4 4 4 5 6 5 4 1 1 2 2 2 1 1 4 7 7 8 8 9 10 10 10 11 12 12 13 14 14 16 16 18 19 18 18 18 17 17 15 15 16 16 15 15 15 15 14 13 13 12 12 13 13 13 14 14 14 13 13 12 10 9 9 9 9 8
16 18 18 17 17 15 14 13 13 13 13 12 11 10 10 10 10 9 7 6 5 4 7 8 8 8 5 3 2 1 1 2 2 3 4 6 7 7 7 7 8 9 11 13 13 13 13 13 13 14 16 16 15 18 17 16 16 15 15 16 16 16 16 15 15 15 14 14 13 13 13 14 14 14 14 13 12 11 9 7 7 8 8 7 6
18 21 19 16 17 16 15 14 14 15 16 14 13 13 14 13 13 12 11 10 9 8 10 10 10 10 9 8 7 4 1 2 2 2 3 4 6 7 7 6 7 9 11 12 12 12 11 11 12 13 14 14 15 17 17 16 16 16 16 15 15 16 16 16 16 16 15 15 14 14 14 14 14 13 13 12 11 9 8 7 7 7 6 4 5
18 20 20 17 17 17 16 16 15 16 16 16 16 15 15 15 16 16 15 13 14 13 13 12 11 10 10 11 12 10 6 3 2 0 2 3 4 6 7 7 8 9 11 13 12 11 11 12 12 14 15 15 17 17 17 17 17 17 17 16 15 15 15 16 16 16 16 16 16 15 14 13 12 12 11 10 9 9 8 7 6 6 4 3 4
20 20 21 18 17 17 17 16 16 16 17 17 16 14 14 16 17 16 15 15 16 16 15 13 13 12 11 12 13 12 9 7 5 3 1 2 3 4 6 7 9 10 12 13 13 14 13 13 14 16 16 15 17 18 19 18 17 17 18 16 15 14 14 14 15 15 16 16 16 15 14 12 11 10 8 7 8 8 7 6 5 5 4 3 4
21 21 21 18 17 17 16 16 17 18 17 15 14 14 15 16 17 17 17 17 17 17 16 16 15 13 11 11 11 10 9 8 8 7 4 2 2 3 5 6 8 12 15 14 14 15 15 14 15 17 16 15 15 16 15 14 12 13 15 17 15 14 14 14 14 15 15 15 15 14 12 11 10 8 5 5 6 5 4 3 3 3 3 3 4
19 19 18 17 16 15 15 16 17 17 17 15 13 14 16 16 17 17 17 17 16 16 16 16 15 14 12 11 10 10 8 7 9 9 7 5 4 5 7 7 7 11 15 16 17 17 16 15 14 15 15 14 13 10 9 9 11 12 14 17 17 15 15 14 13 14 14 14 13 12 11 10 9 8 5 5 5 4 3 2 2 2 2 2 2
18 17 17 16 15 16 16 16 16 17 17 16 15 15 17 17 16 15 15 14 15 15 16 16 15 15 14 13 13 11 10 8 8 9 7 5 5 5 8 9 9 11 13 16 17 17 18 17 15 14 12 10 10 8 7 10 13 15 16 17 17 16 14 13 12 13 13 12 12 11 10 10 9 7 7 7 6 4 3 3 2 2 2 2 1
17 17 17 16 15 16 17 16 16 17 17 17 16 16 17 17 16 16 16 15 15 15 15 16 16 15 14 14 14 13 13 12 10 9 8 8 6 4 7 8 7 11 15 16 16 16 17 17 16 14 9 7 9 8 7 10 13 15 14 14 15 14 13 12 12 12 12 12 12 11 11 10 9 8 9 8 6 4 4 4 3 2 2 2 2
17 17 17 17 17 16 17 17 16 17 17 16 16 15 15 17 17 17 17 16 16 15 15 16 16 15 15 14 14 14 14 15 14 12 11 10 9 6 8 8 7 9 12 13 13 13 14 16 15 12 8 10 11 10 9 9 11 13 12 13 15 14 14 14 12 13 14 13 13 12 12 10 9 9 9 8 6 4 4 5 5 4 4 4 3
17 17 17 16 17 17 17 17 16 15 16 16 15 14 15 15 16 16 16 16 16 14 15 15 15 15 15 14 15 14 14 14 13 12 12 11 10 7 6 8 9 10 10 10 12 11 12 14 14 12 11 9 8 9 11 10 10 12 13 16 16 14 14 15 14 14 15 14 13 13 12 11 10 10 9 8 5 3 3 4 5 5 5 5 4
16 16 16 16 17 17 16 16 16 15 15 15 15 14 14 15 15 14 14 15 15 14 15 15 15 15 14 14 14 13 13 14 12 12 11 11 10 8 6 4 6 7 7 9 10 10 11 11 11 13 13 10 8 9 12 10 11 12 13 16 17 15 15 14 14 15 15 15 14 13 12 11 11 11 9 7 5 4 3 4 5 5 4 4 4
16 16 16 16 16 16 16 15 15 15 15 15 15 15 15 15 15 15 14 14 14 15 15 15 14 14 13 13 13 13 13 13 13 13 12 11 10 9 8 6 4 4 4 5 5 5 8 8 6 8 12 13 11 10 11 10 12 15 15 15 16 16 15 14 14 15 16 16 15 13 12 13 13 11 9 6 5 5 4 5 5 5 5 4 4
15 16 15 16 15 15 15 14 14 14 14 14 14 14 14 15 15 14 14 13 13 14 14 13 13 13 13 12 13 14 13 12 13 13 13 13 11 11 11 9 7 5 3 3 4 4 5 6 4 0 4 9 9 9 11 12 13 17 17 14 14 15 15 14 15 15 16 16 14 13 14 14 13 11 9 8 7 6 5 5 5 5 5 5 5
14 14 14 15 15 14 14 13 13 13 13 13 13 13 13 13 12 12 11 11 12 12 12 12 12 11 11 12 12 12 13 13 13 13 13 13 13 13 14 12 11 9 5 3 5 7 8 10 6 3 3 6 7 7 9 12 14 16 16 14 13 15 15 15 15 16 16 16 15 15 15 15 13 11 10 9 8 7 6 6 5 5 5 5 6
14 13 13 13 13 13 13 13 12 12 12 12 12 12 12 12 11 11 10 10 10 11 11 11 11 10 11 11 12 12 12 12 12 13 13 13 13 14 13 13 13 12 10 6 4 7 9 9 6 3 4 3 6 6 8 13 15 16 17 16 14 14 14 15 16 17 18 17 16 17 16 14 13 12 11 11 10 8 7 6 6 6 5 6 6
14 13 12 13 13 13 13 13 12 12 12 12 11 11 11 11 11 10 9 9 9 10 10 10 9 10 11 11 11 12 12 12 12 12 12 11 12 12 12 14 14 12 12 10 6 7 11 11 8 1 3 2 5 8 13 19 18 17 18 16 14 14 15 16 17 18 18 17 16 17 16 14 13 13 13 12 10 9 8 7 6 6 6 7 7
14 14 14 13 13 13 13 13 12 12 12 12 11 11 10 10 10 10 9 9 9 9 9 9 9 10 10 10 11 11 11 11 12 12 12 11 11 12 13 14 15 13 12 11 8 8 11 12 10 4 3 4 7 10 17 20 19 18 18 16 15 15 15 17 20 20 19 18 17 17 16 15 14 14 14 13 11 9 8 7 6 7 7 7 8
15 15 14 13 13 13 13 13 13 13 13 12 12 12 12 11 11 11 10 9 9 9 9 8 8 8 9 10 10 10 10 10 11 11 11 11 11 12 13 13 14 14 14 13 11 9 10 10 10 7 5 7 9 10 14 18 18 18 18 16 16 16 16 19 21 21 21 19 17 17 17 16 15 16 15 14 11 9 8 7 7 7 7 8 8
16 15 14 13 13 13 12 13 13 13 13 13 13 13 13 12 12 11 11 10 9 8 8 7 7 7 7 7 8 8 8 8 9 10 10 11 11 11 12 13 13 13 13 13 12 11 11 11 11 10 8 7 7 9 11 15 17 18 18 16 16 17 18 20 20 21 21 20 18 17 17 17 16 17 16 13 11 9 9 8 8 8 8 8 9
16 15 14 13 13 13 13 13 14 14 14 13 13 13 13 12 12 12 11 11 9 8 7 7 8 6 2 4 5 6 7 7 8 8 9 10 10 10 11 12 12 13 12 12 12 12 12 13 13 12 10 7 8 9 11 14 17 19 20 19 18 18 18 18 16 16 18 19 19 18 18 18 18 18 16 13 11 10 9 9 9 8 9 9 10
17 15 15 14 14 14 15 15 15 15 14 14 13 13 12 12 11 11 10 10 9 8 6 5 4 2 3 5 7 7 7 8 8 8 8 9 10 10 11 12 12 13 12 12 13 13 13 14 15 14 13 9 8 9 12 15 18 21 23 22 20 17 16 17 16 16 17 18 19 19 18 18 19 18 16 14 13 12 10 10 10 9 10 10 11
12 13 14 16 17 17 17 17 16 15 14 14 14 13 13 13 11 10 9 8 7 6 4 5 5 5 5 7 9 9 9 10 11 11 11 10 9 8 9 10 10 11 12 12 12 12 13 14 16 16 15 11 8 9 14 14 17 22 23 20 18 17 18 19 18 17 18 18 19 20 20 20 20 19 17 15 14 13 12 11 10 10 11 11 12
15 16 15 16 18 19 18 17 16 16 15 14 15 14 13 13 12 11 9 7 5 3 3 5 6 6 7 9 10 11 10 11 11 10 8 8 8 8 9 9 9 9 11 11 11 11 12 13 13 14 14 13 10 9 11 12 14 20 20 18 20 21 20 19 17 16 19 19 18 20 21 21 21 19 17 16 15 14 13 12 11 11 11 12 13
22 21 18 17 18 18 18 17 16 16 15 14 15 15 14 13 13 12 9 7 7 5 5 5 6 7 8 9 10 10 9 9 9 9 10 11 13 15 16 15 14 12 12 12 11 11 11 12 12 12 13 14 10 6 8 10 13 17 17 17 22 22 19 20 18 18 21 21 20 21 23 22 22 21 19 17 16 15 14 14 13 13 13 14 15
23 23 22 21 19 18 18 18 16 15 15 14 13 13 13 12 11 10 9 8 6 5 5 5 6 6 8 9 9 10 9 10 11 13 15 16 16 17 17 16 16 15 15 14 13 12 11 11 12 12 12 12 10 6 7 10 13 15 16 18 20 19 17 17 16 18 22 23 22 24 25 25 25 23 21 20 19 18 18 16 16 15 14 15 16
23 23 20 20 20 19 19 19 17 14 12 10 10 9 10 9 7 7 6 5 4 4 4 5 7 7 8 9 10 10 10 11 12 14 15 15 15 15 14 14 15 15 15 15 15 13 13 12 11 10 10 10 11 10 8 9 10 13 16 18 19 17 13 11 12 16 21 22 23 24 25 26 26 24 23 23 22 21 21 20 18 18 17 17 17
24 23 19 19 20 19 18 18 16 12 10 11 10 9 10 9 6 5 5 5 5 5 6 7 8 9 9 10 10 10 10 11 12 14 15 15 14 14 14 14 15 15 15 15 15 13 13 13 13 12 10 8 8 10 8 7 9 10 14 17 17 15 10 8 8 12 19 23 24 23 24 25 26 27 26 26 25 25 24 22 20 19 19 18 18
25 23 20 20 20 18 17 16 15 14 15 15 13 12 12 11 8 7 6 6 6 6 7 8 9 10 10 11 11 11 12 12 13 14 15 16 16 15 15 15 15 15 15 15 15 14 12 12 12 12 12 11 10 9 8 3 3 6 9 13 16 16 12 10 13 14 18 24 24 22 22 24 26 28 29 28 28 27 25 24 22 20 20 20 19
24 21 21 22 21 18 18 18 17 18 19 18 16 15 15 15 14 11 8 5 6 7 8 9 10 10 11 12 13 13 13 13 14 14 15 15 16 15 14 14 16 16 16 17 17 17 17 16 14 12 11 11 11 10 8 7 6 4 5 9 14 18 17 16 18 16 15 23 27 22 20 23 26 27 29 29 29 29 27 25 24 22 21 21 20
23 21 21 22 21 18 19 21 20 20 20 20 18 17 17 18 19 18 15 12 12 11 11 11 11 11 12 13 14 14 14 15 16 16 15 14 14 15 15 15 15 15 15 15 16 18 19 20 19 17 15 13 13 13 13 12 10 5 3 6 10 16 20 20 21 19 17 23 29 23 17 22 26 26 27 27 28 30 30 27 26 24 23 22 21
25 24 24 24 23 21 20 22 22 22 21 20 20 20 19 19 20 20 20 19 17 15 13 12 12 13 14 15 15 15 15 15 15 16 16 14 13 14 15 16 16 15 14 13 14 16 18 19 20 20 18 17 16 15 14 13 12 10 9 11 12 12 15 18 18 21 21 23 29 24 17 21 27 25 24 25 26 29 30 28 27 26 24 23 21
24 25 27 27 26 24 22 22 23 23 22 21 21 21 21 20 20 20 20 20 18 16 15 14 14 15 16 16 16 16 16 16 16 16 17 16 14 14 15 16 17 17 16 16 16 16 17 19 20 20 19 19 18 17 16 16 16 17 18 20 19 16 14 14 15 21 23 24 30 29 19 20 27 26 22 21 24 29 30 29 29 27 25 25 22
25 27 29 30 29 26 23 24 25 24 23 22 22 22 22 21 20 21 22 21 19 17 16 15 15 17 18 18 18 19 20 19 18 18 17 16 16 15 15 15 16 17 18 18 16 16 16 16 16 17 19 19 20 20 20 19 19 20 20 21 21 18 14 13 11 15 20 24 30 31 23 21 27 27 21 20 24 29 30 29 29 27 26 26 24
27 28 29 29 29 27 25 27 28 26 24 24 25 24 23 22 21 22 23 22 19 17 16 16 17 19 20 19 19 21 23 22 20 19 18 17 16 15 14 13 14 16 18 18 15 16 17 15 13 13 14 16 17 18 19 19 18 19 20 20 21 19 16 15 13 13 17 22 29 31 24 21 26 28 24 19 19 26 31 30 29 29 27 27 26
27 28 27 27 28 27 26 28 30 28 25 25 27 26 25 24 24 25 26 23 19 18 18 18 19 20 20 20 19 21 22 22 21 19 17 16 15 14 12 11 12 14 16 16 15 16 20 21 20 19 20 20 20 19 19 18 18 18 19 19 20 20 19 19 18 14 10 14 27 33 26 23 28 31 28 20 11 15 28 32 30 30 29 29 28
Wind_Direction
189 194 187 185 194 187 181 181 183 191 193 192 197 211 221 202 174 181 179 175 188 175 153 172 185 148 158 166 168 162 144 176 140 149 168 163 139 111 118 178 171 170 179 185 186 189 191 192 192 195 200 187 176 180 183 181 151 122 109 99 94 89 94 73 34 356 342 327 330 320 325 351 5 2 358 3 5 5 16 28 33 35 31 27 28
194 200 192 188 197 191 187 187 187 190 194 197 197 208 216 192 184 190 182 189 195 190 164 157 179 179 175 172 170 168 156 171 154 135 142 143 133 106 97 167 174 173 182 193 193 196 202 202 204 203 206 204 186 188 196 194 161 129 103 77 66 55 45 37 38 23 21 14 21 29 30 32 25 23 20 24 29 27 31 34 31 29 30 26 20
198 202 196 190 194 192 191 192 190 186 188 196 195 198 200 195 204 202 193 196 186 189 180 167 189 193 181 173 170 167 157 169 169 147 147 154 183 139 130 151 175 179 185 195 201 206 207 208 213 209 212 212 196 198 206 209 206 210 257 288 320 352 2 10 20 23 27 33 45 52 51 49 33 31 30 31 31 26 22 17 16 16 16 14 10
205 204 196 192 194 196 197 192 188 185 188 194 194 193 195 202 209 203 206 211 189 184 183 189 205 198 176 171 174 170 167 174 175 170 169 180 247 227 178 154 178 194 197 198 199 207 211 211 213 208 214 214 200 205 210 216 223 236 253 248 252 277 282 315 335 2 22 37 49 59 53 43 24 23 25 29 28 20 11 1 359 359 358 359 358
216 213 200 198 196 201 205 192 187 187 190 192 190 191 196 205 211 203 201 214 211 188 184 202 218 211 182 169 175 183 181 177 176 181 176 171 197 227 225 189 180 193 210 209 202 204 209 213 216 213 216 216 207 210 214 221 225 230 242 244 239 243 249 266 266 303 358 7 29 31 6 359 351 357 3 14 16 7 358 351 350 350 350 350 349
233 234 209 202 200 204 207 194 188 186 189 186 181 187 197 201 204 207 199 211 230 202 192 209 212 234 209 169 170 190 189 182 181 181 180 179 186 204 224 224 212 200 204 212 211 209 207 211 217 219 220 220 218 217 217 224 227 228 237 243 240 232 229 225 225 255 265 266 277 281 301 314 320 327 333 342 351 350 346 346 346 346 347 349 347
261 259 224 212 204 203 206 204 199 186 182 169 168 186 193 197 199 211 213 217 233 205 173 194 194 230 236 179 171 192 194 197 193 180 182 187 186 193 203 212 226 232 216 206 208 211 212 213 215 219 221 222 224 226 224 227 230 230 233 241 246 235 219 218 231 248 251 255 258 265 279 289 300 307 310 320 328 334 337 340 340 340 344 347 347
259 262 258 246 211 203 210 208 202 190 170 139 156 201 198 202 198 197 232 241 275 263 203 189 184 223 222 206 202 209 205 203 199 189 187 186 190 194 195 203 217 228 230 225 220 212 214 215 217 220 221 222 225 229 231 233 235 234 233 238 243 243 232 226 234 243 251 251 252 260 268 278 288 295 301 310 316 321 328 332 334 335 338 343 346
242 245 278 281 242 229 215 188 170 183 170 137 136 243 213 217 208 154 291 320 337 320 295 230 267 350 255 241 230 232 233 210 197 199 195 190 196 197 196 201 206 212 219 229 239 235 219 212 217 222 222 225 225 226 229 232 235 237 239 239 240 245 242 238 239 244 251 250 251 256 261 271 278 287 296 303 309 314 320 325 329 330 331 336 339
234 232 256 253 257 277 212 162 139 186 178 157 145 315 242 222 205 205 254 324 345 345 328 287 324 317 291 289 251 261 270 233 217 227 219 211 207 201 200 201 202 206 209 218 234 241 236 223 216 220 222 225 226 225 225 226 228 231 238 240 239 243 244 243 244 247 250 249 252 255 260 269 276 285 292 298 305 309 314 319 323 324 326 329 329
223 237 251 237 246 319 204 186 164 190 189 178 165 350 288 254 200 234 240 255 319 345 329 240 313 323 313 301 259 279 282 241 245 253 247 244 231 218 208 203 205 210 210 213 220 229 238 236 228 226 225 226 227 228 228 226 226 227 231 234 234 238 240 240 241 243 245 246 250 253 259 268 275 285 290 296 301 305 309 314 316 318 321 322 322
217 233 244 240 250 249 184 189 179 184 195 188 167 110 293 273 227 245 250 250 256 277 283 248 296 317 304 291 256 264 272 257 258 253 257 267 261 254 234 221 216 211 212 216 216 219 229 238 238 235 236 234 229 226 227 229 229 230 230 231 232 234 235 237 238 240 241 243 248 253 260 267 274 281 286 291 296 301 305 307 310 312 313 313 315
218 229 229 230 243 230 186 183 187 182 192 197 182 193 259 252 215 214 238 252 252 264 295 280 321 334 309 303 286 277 272 266 263 257 263 261 254 257 248 238 230 220 221 222 220 217 221 234 239 240 241 239 235 232 230 230 230 231 232 233 235 235 236 237 237 240 243 246 251 256 261 267 273 276 282 290 295 298 300 302 305 306 307 307 309
215 225 226 227 234 232 213 200 199 187 180 190 192 194 215 209 189 191 211 236 250 266 280 271 347 6 341 326 308 297 282 265 258 254 261 257 252 251 242 240 244 237 232 229 225 221 222 231 235 238 237 235 240 243 240 236 232 231 232 233 235 236 237 239 240 242 245 250 254 257 261 265 269 275 282 289 292 296 298 300 301 302 303 302 304
208 215 220 223 228 228 221 210 203 196 188 190 195 196 202 198 191 203 211 224 247 244 233 231 236 234 45 350 307 317 295 257 244 249 260 258 257 257 246 238 237 236 233 231 229 226 225 228 231 233 229 228 236 243 245 240 235 235 234 234 236 236 236 237 240 243 245 249 253 255 258 261 266 273 280 285 289 294 296 295 297 300 300 300 305
206 212 216 215 215 216 212 204 195 196 195 195 199 199 204 202 201 213 215 214 239 249 227 216 220 221 146 170 263 297 271 236 227 254 263 257 252 256 254 246 240 237 233 231 232 232 229 225 230 234 233 231 232 238 243 239 237 239 238 238 238 236 236 235 238 242 244 247 250 253 257 260 266 272 278 284 289 293 295 294 295 296 296 301 309
206 208 210 208 206 204 204 201 195 194 197 198 200 204 207 204 203 212 215 206 215 243 233 223 223 220 205 201 233 246 246 354 329 263 263 256 245 251 262 261 245 237 237 235 232 233 232 234 238 235 233 233 228 233 242 240 239 241 237 235 236 235 236 237 237 240 244 247 249 252 256 261 267 273 278 283 288 291 295 296 290 288 292 302 313
206 201 201 204 203 201 202 205 201 196 194 194 196 201 204 206 210 214 215 206 195 209 224 227 233 229 219 224 240 238 222 336 316 288 308 287 258 249 252 252 245 248 250 241 232 234 241 246 245 237 234 233 230 233 239 240 240 241 239 235 234 236 237 239 240 241 243 246 249 252 256 262 268 273 276 280 285 288 289 285 282 284 289 303 319
207 202 200 203 201 200 203 204 203 199 195 193 193 196 200 204 211 215 216 210 198 202 214 217 224 232 231 234 242 241 231 237 239 264 316 301 280 258 249 246 249 259 256 245 240 239 241 242 239 241 243 239 238 238 236 236 236 239 244 245 241 237 235 238 240 241 243 245 248 250 254 260 265 269 273 276 278 277 278 279 281 284 285 309 330
199 200 199 202 199 200 201 196 198 201 200 196 192 190 194 200 208 212 213 212 207 208 211 211 214 222 227 233 244 245 237 232 231 230 241 291 301 286 272 260 248 249 249 244 242 237 241 244 239 244 248 243 248 249 240 234 234 237 242 246 245 239 234 235 237 241 244 245 246 247 250 255 259 263 266 268 269 269 274 279 279 283 287 306 317
195 196 198 200 200 201 200 195 196 198 200 202 193 186 190 197 203 206 205 207 212 215 213 211 216 219 218 225 239 244 240 238 234 228 218 229 278 291 278 259 240 245 248 245 241 240 247 251 246 247 247 246 256 258 246 239 243 249 248 244 241 238 236 237 242 245 244 243 243 242 244 247 250 252 247 249 257 261 275 276 269 279 287 292 293
203 202 200 201 203 203 200 199 199 197 200 207 203 192 194 199 201 204 207 204 205 212 214 214 219 221 217 218 226 228 229 235 224 216 213 213 234 265 269 256 248 257 256 250 248 248 251 251 249 251 250 253 263 266 261 257 253 254 250 244 242 239 237 240 245 244 239 238 235 232 235 238 242 237 216 219 227 228 253 257 247 257 261 263 260
210 209 206 205 208 206 201 202 203 202 203 207 208 202 200 202 202 204 210 210 207 209 214 219 223 226 225 220 223 224 229 236 218 204 206 212 225 256 267 259 254 260 263 262 258 253 253 252 249 255 262 268 267 264 270 263 247 241 239 238 239 236 234 242 245 239 234 229 223 223 228 232 234 218 200 209 214 210 217 212 220 230 201 181 144
212 211 210 207 207 205 203 206 207 205 205 207 208 206 206 206 206 208 211 211 214 212 214 222 225 228 229 226 228 233 237 244 242 228 226 236 245 260 272 267 253 257 267 269 262 250 249 248 248 257 259 241 238 243 265 262 243 236 231 226 232 233 234 246 248 238 230 222 217 221 224 224 218 203 200 207 206 197 180 166 170 170 158 147 109
211 211 211 208 206 205 204 207 209 205 205 209 209 205 208 210 210 214 217 215 217 216 217 223 224 224 228 231 237 241 242 247 252 248 240 242 247 256 273 274 263 269 273 265 256 255 252 246 246 251 226 209 223 230 243 250 230 225 226 220 225 232 238 247 248 237 226 220 219 221 220 215 201 191 194 197 198 195 173 157 156 154 147 133 116
211 210 209 208 206 205 205 206 209 208 207 210 210 205 207 211 211 216 221 222 222 222 221 225 228 229 231 235 239 241 243 248 251 250 246 242 239 245 275 284 279 281 283 271 258 254 254 248 243 240 223 225 245 224 218 228 215 218 230 225 224 231 242 247 243 232 225 222 222 219 213 204 189 183 187 191 198 193 170 161 161 159 149 135 133
211 210 208 206 204 204 205 205 206 207 207 208 208 207 207 207 209 214 218 219 220 221 223 226 229 232 233 236 240 243 246 248 249 249 249 248 247 252 263 278 288 284 279 277 262 240 244 248 239 237 235 245 256 222 212 223 226 232 235 228 227 234 241 241 234 228 224 222 220 212 200 190 182 185 192 195 202 197 173 160 157 157 154 148 149
213 210 207 206 204 203 204 205 205 204 205 206 204 204 206 205 206 209 213 214 215 216 219 223 226 229 232 236 242 247 250 253 257 257 256 258 259 260 258 256 272 285 280 282 276 253 254 258 252 251 248 249 250 237 225 220 223 231 231 228 233 238 237 231 227 227 223 219 215 205 191 185 185 193 199 197 197 197 181 164 160 156 154 158 157
212 208 207 207 206 204 203 204 205 204 204 205 205 204 204 205 205 207 210 212 214 217 218 221 226 229 233 238 242 247 250 252 258 262 261 262 261 257 256 254 251 260 289 288 279 285 277 276 295 316 241 258 256 242 238 228 219 222 225 230 239 242 238 229 225 224 219 215 210 197 188 189 195 198 199 198 198 198 189 176 168 162 159 160 156
213 210 209 209 208 206 206 206 206 207 208 207 207 208 207 207 207 209 212 213 216 221 223 226 230 234 239 243 245 249 252 250 252 255 254 254 258 259 259 257 249 245 255 274 278 278 276 282 290 120 118 285 261 228 234 229 219 221 226 232 238 242 240 229 223 220 216 214 207 197 194 198 202 201 198 198 198 195 192 186 178 171 168 161 154
214 214 212 211 211 210 210 212 211 211 212 212 211 212 214 213 213 216 219 219 221 223 227 232 233 237 242 246 248 251 254 252 250 253 254 250 251 256 257 256 253 245 237 235 259 271 268 285 302 121 116 281 250 233 243 226 218 226 232 232 235 242 241 229 219 215 213 213 207 203 204 204 204 202 199 198 198 197 194 192 185 177 173 162 155
215 216 215 213 214 215 215 215 215 215 214 215 216 216 218 219 219 223 224 223 226 227 231 237 238 240 244 246 250 253 255 255 254 256 258 253 248 252 253 255 255 247 238 235 245 270 268 280 298 276 135 256 243 233 236 226 219 226 231 231 236 242 237 227 218 212 211 212 211 210 208 206 205 202 201 199 198 199 196 192 186 180 176 166 161
216 216 216 217 217 218 219 217 217 218 217 216 216 215 217 219 220 223 223 224 229 233 236 240 242 245 249 252 256 259 258 258 259 257 254 254 257 259 259 260 259 253 249 245 246 268 273 275 280 260 192 231 238 222 220 222 221 223 227 232 238 239 235 225 217 212 212 213 215 214 209 207 206 202 201 202 200 199 196 190 185 184 180 171 166
219 217 216 219 222 221 221 220 220 220 221 220 219 215 215 216 217 217 218 219 225 232 236 241 248 255 260 262 264 267 267 265 265 262 257 258 261 262 264 264 263 261 259 252 246 259 274 276 278 273 231 220 245 246 223 218 221 220 223 234 239 238 232 223 217 214 213 214 216 216 212 210 208 203 202 203 200 195 192 190 189 187 183 176 172
221 222 222 224 227 228 227 226 225 226 226 223 220 217 216 215 216 215 213 212 215 223 227 231 239 246 257 269 276 278 277 276 274 274 275 273 267 267 271 271 267 266 261 249 244 256 273 278 279 279 257 220 248 266 228 212 221 222 220 230 240 238 225 217 220 220 216 214 215 215 214 212 208 206 206 204 198 194 192 192 192 189 185 179 173
224 224 227 231 231 230 231 231 231 230 229 227 223 219 218 218 220 218 213 208 207 212 218 229 232 226 242 300 309 308 303 300 293 287 288 285 279 277 279 280 276 275 271 260 257 264 273 278 277 276 273 249 245 256 229 212 222 225 218 219 231 234 219 210 222 231 224 218 216 216 215 213 209 208 207 202 196 197 197 194 192 188 186 181 174
223 222 224 230 233 232 231 232 232 232 230 229 227 223 221 224 225 223 218 212 212 218 232 261 275 309 358 330 317 312 311 313 311 309 308 304 300 293 287 285 280 278 280 275 272 270 268 273 276 277 280 268 245 254 252 233 223 221 219 220 227 229 216 209 219 229 228 219 214 215 214 212 211 209 206 200 198 200 198 195 194 189 184 180 176
234 234 232 229 231 232 232 231 230 231 231 229 230 229 224 224 225 224 222 216 219 232 256 285 311 344 343 319 310 309 308 309 308 308 308 305 304 306 306 303 293 285 283 278 275 275 269 271 276 278 282 276 249 253 264 250 226 220 220 219 223 221 211 211 217 220 217 213 211 212 210 208 209 208 203 201 200 200 197 194 192 187 182 180 177
229 231 235 235 236 235 232 232 228 228 232 230 230 229 223 222 222 222 226 228 231 255 289 295 306 317 309 298 298 300 300 300 299 298 300 299 295 298 307 315 316 307 297 288 281 279 276 274 274 272 276 277 265 254 260 254 234 230 227 219 220 218 208 210 216 207 203 206 207 208 207 207 208 207 203 202 201 199 195 193 190 186 183 181 177
220 221 225 230 239 240 235 236 234 230 232 234 232 228 225 226 221 214 224 238 238 249 270 279 285 288 288 288 289 290 289 290 292 292 297 301 300 298 298 300 302 303 302 300 292 284 279 275 275 273 274 278 275 251 249 250 238 236 234 226 226 224 213 213 219 210 202 202 201 201 203 204 206 205 201 200 200 198 194 190 188 186 183 182 179
219 219 221 221 229 236 237 240 242 234 230 231 232 228 225 228 220 208 217 229 226 232 246 259 272 277 282 285 285 288 288 286 288 288 290 294 294 294 295 298 296 292 290 290 290 288 283 276 275 276 274 278 279 258 231 230 235 245 247 237 233 233 223 210 207 210 209 202 196 197 201 204 205 204 200 197 196 194 192 189 186 184 183 182 182
214 213 221 223 224 228 231 234 236 231 222 218 223 220 213 219 219 206 211 218 223 249 261 268 276 275 277 282 282 287 293 294 297 298 299 299 293 285 286 294 295 290 284 280 278 281 285 283 282 279 272 271 277 276 250 218 230 260 261 246 234 232 223 189 179 200 209 203 196 195 200 206 207 204 201 199 197 194 192 190 187 185 182 181 183
214 212 220 224 223 224 225 228 227 217 203 200 207 205 199 205 211 204 210 221 227 245 257 260 266 269 273 280 284 290 298 301 303 306 307 306 299 285 278 284 290 287 281 276 272 271 275 278 282 284 286 286 286 295 290 237 214 232 251 252 243 232 212 169 175 204 208 206 202 196 198 206 208 206 203 201 199 196 194 191 187 184 182 180 181
216 214 218 222 223 221 221 224 217 204 200 201 205 207 206 211 213 200 199 215 225 238 250 254 261 270 276 282 288 294 300 301 302 304 306 306 304 294 283 285 292 290 280 273 271 271 270 273 276 277 284 295 303 314 329 335 199 212 240 259 258 249 234 204 204 212 207 206 204 194 196 205 207 205 204 203 202 198 194 191 186 183 183 181 180
216 213 216 220 222 220 219 219 211 202 201 199 197 201 208 214 216 206 195 206 230 244 256 261 265 272 279 287 294 297 300 304 307 309 310 310 312 312 305 298 296 291 284 277 273 273 272 271 272 271 272 280 286 289 303 326 328 294 251 253 250 247 243 229 222 220 209 205 202 191 189 202 205 202 202 204 204 199 195 190 186 184 184 181 179
215 212 213 215 215 215 216 216 212 205 200 195 193 197 205 212 216 214 214 224 237 247 256 262 267 275 283 288 292 293 295 299 301 303 304 303 305 312 315 310 303 296 293 290 285 283 280 273 268 268 272 276 278 278 279 286 294 294 271 268 255 243 243 246 240 229 216 208 204 193 186 196 200 199 201 205 204 200 196 191 186 185 183 181 179
214 213 212 211 210 211 213 213 211 206 201 198 198 202 209 215 217 218 222 230 238 245 252 258 266 272 277 281 284 288 290 291 291 293 298 301 302 303 306 307 306 301 300 301 301 299 296 286 275 272 277 282 282 281 278 273 271 272 277 285 288 275 264 261 242 223 220 215 206 198 190 194 197 196 200 206 204 199 197 193 188 187 184 182 181
216 215 213 211 209 210 214 214 212 207 203 202 203 206 212 216 218 221 225 229 232 237 245 253 261 266 270 275 280 283 283 280 277 279 285 292 295 298 300 301 302 302 300 299 301 303 305 302 292 283 284 289 289 286 285 281 277 277 278 279 283 286 280 265 233 214 218 218 207 202 194 188 192 195 199 206 204 200 199 196 191 189 187 184 183
214 213 212 212 213 214 215 215 212 207 204 205 205 206 210 215 220 223 225 225 227 235 243 251 257 263 265 267 269 271 270 267 265 268 273 278 282 287 291 291 293 296 297 297 302 305 306 311 308 295 288 289 290 288 285 284 282 279 277 274 273 272 265 258 244 222 218 212 202 200 196 187 189 191 190 196 201 200 199 197 193 191 191 188 185
209 211 211 213 217 218 218 217 213 207 205 207 207 206 209 215 220 221 221 221 225 233 240 248 255 259 261 263 266 267 266 260 258 262 266 271 277 279 281 286 286 285 287 292 301 302 296 299 308 306 300 295 292 290 285 281 280 277 273 269 266 261 251 248 251 241 227 213 201 199 197 189 186 184 178 175 188 197 199 198 196 194 192 190 189
209 211 211 212 215 217 217 217 214 209 207 209 211 209 209 214 216 217 218 218 222 231 237 244 252 257 262 268 273 277 275 262 252 255 261 265 270 270 272 280 280 276 278 284 291 294 292 294 297 298 299 296 292 292 289 283 279 275 274 273 266 256 246 244 247 245 231 209 203 202 199 187 182 182 178 170 168 195 200 199 200 199 196 194 194